Location: Bucharest
(44.4268°N, 26.1025°E)
Time: 01:45:12
(UTC+03:00)

O/OREOS (USA 219) - Pass Details

Date: 02 July 2022
Orbit: 621 x 646 km, 72.0° (Epoch: 22 May)

Event Time Altitude Azimuth Distance (km) Brightness Sun altitude
Rises 23:33:07 0° 352° (N) 2,964 ? -18.3°
Reaches altitude 10° 23:37:14 10° 28° (NNE) 2,052 ? -18.6°
Maximum altitude 23:38:34 11° 45° (NE) 1,977 ? -18.7°
Drops below altitude 10° 23:39:55 10° 62° (ENE) 2,050 ? -18.8°
Enters shadow 23:42:14 - 86° (E) 2,470 ? -19.0°
